Regional Weather Roundup
Issued by NWS Spokane, WA

Home | Current Version | Previous Version | Text Only | Print | Product List | Glossary On
Versions: 1 2 3 4 5 6 7 8 9 10 11 12 13 14 15 16 17 18 19 20 21 22 23 24 25 26 27 28 29 30 31 32 33 34 35 36 37 38 39 40 41 42 43 44 45 46 47 48 49 50
000
NZUS01 KOTX 230405
RWROTX

Eastern Washington/Northern Idaho Roundup
National Weather Service, Spokane WA
900 PM PDT SUN APR 22 2018

Note: "fair" indicated few or no clouds below 12,000 feet with no
significant weather and/or obstructions to visibility.

...Northeast Washington and Northern Idaho Panhandle...

CITY           SKY/WX    TMP DP  RH WIND       PRES   REMARKS
Spokane Intl   PTCLDY    50  23  34 W5        30.23R
Spokane Downto CLEAR     45  27  49 CALM      30.23R
Coeur d Alene  CLEAR     44  29  55 E5        30.23
Deer Park      CLEAR     39  29  67 NW5       30.23R
Sandpoint      PTCLDY    45  28  53 N7        30.23R
Bonners Ferry  CLOUDY    46  23  39 N9        30.23R

...Southeast Washington and southern Idaho Panhandle...

CITY           SKY/WX    TMP DP  RH WIND       PRES   REMARKS
Walla Walla    CLEAR     48  35  60 E3        30.24R
Pullman/Moscow CLEAR     43  27  53 NW5       30.24R
Lewiston       CLEAR     50  28  42 W6        30.22R
Lowell           N/A     45  36  70 CALM      30.22R
Grangeville    FAIR      41  28  60 CALM      30.20R

...Columbia Basin...

CITY           SKY/WX    TMP DP  RH WIND       PRES   REMARKS
Ephrata        CLEAR     50  23  34 N8        30.24R
Moses Lake     CLEAR     50  22  33 N8        30.24R
Pasco          CLEAR     52  30  43 CALM      30.25R
Richland       CLEAR     50  30  46 NW3       30.25R
Hermiston      CLEAR     48  33  56 SE5       30.24R
Pendleton      CLEAR     47  27  45 CALM      30.24R

...East Slopes Cascades...

CITY           SKY/WX    TMP DP  RH WIND       PRES   REMARKS
The Dalles     CLEAR     53  35  50 CALM      30.24R
Yakima         CLEAR     52  27  38 NW3       30.25R
Ellensburg     CLEAR     50  32  50 N10       30.25R
Wenatchee      CLEAR     53  22  29 CALM      30.25R
Winthrop       CLOUDY    47  23  39 NW3       30.28R
Omak           CLEAR     47  25  42 N12       30.27R
Sunnyside      CLEAR     43  32  64 N5        30.25R

...Southern British Columbia...

CITY           SKY/WX    TMP DP  RH WIND       PRES   REMARKS

...Western Montana...

CITY           SKY/WX    TMP DP  RH WIND       PRES   REMARKS
Kalispell      PTCLDY    47  23  38 NW3       30.19R
Missoula       PTCLDY    48  20  32 NW7       30.15R

...Neighboring Cities...

CITY           SKY/WX    TMP DP  RH WIND       PRES   REMARKS
Seattle        CLEAR     50  38  63 N9        30.32R
Portland       PTCLDY    57  35  43 NW12      30.25R
Boise          CLEAR     55  27  34 NW13      30.03R
Great Falls    CLOUDY    45  22  40 N12       30.19R



USA.gov is the U.S. government's official web portal to all federal, state and local government web resources and services.